SAC-D/Aquarius

operational
NORAD ID: 37673 Int'l Des: 2011-024 Owner: CONAE Country: AR
LEOCIRCULARRETROGRADESSO

关于 SAC-D/Aquarius

正在加载描述...

实时位置

正在加载3D地球...

即将过境

高度历史

Altitude vs Time

uPlot chart will show altitude changes over time

两行轨道根数

1 37673U 11024A 26062.53401413 .00001388 00000-0 19754-3 0 9990
2 37673 97.9828 77.3556 0002004 93.1552 21.9381 14.78430873792170
Epoch: Mar 3, 2026 • Age: 34 hours

当前状态

高度 651.8 km
速度 7.53 km/s
星下点 -42.94°S, 67.71°W
发射日期 Jun 10, 2011
运行时间 14.7 years
类型 other

技术详情

分类 Payload
质量 1350.00 kg
干质量 1272.00 kg
总质量 1350.00 kg
长度 4.90 m
直径 2.70 m
跨度 6.00 m
形状 Oct Cyl + 2 Pan
制造商 INVAP
平台类型 Saocom
阶段状态 In Orbit
所有者/国家 CONAE/AR

大型星座

Loading constellations...